Weather History for KJKL - August, 2013

Change the Weather History Date:

Wednesday, August 21, 2013

  Actual Average Record
Temperature  
Mean Temperature 73 °F 74 °F  
Max Temperature 83 °F 84 °F 96 °F (1983)
Min Temperature 62 °F 65 °F 55 °F (2001)
Degree Days  
Heating Degree Days 0 0  
Month to date heating degree days 2 0  
Since 1 June heating degree days 2 12  
Since 1 July heating degree days 2 0  
Cooling Degree Days 8 10  
Month to date cooling degree days 145 210  
Year to date cooling degree days 790 890  
Since 1 June cooling degree days 642 754  
Growing Degree Days 22 (Base 50)    
Moisture  
Dew Point 66 °F    
Average Humidity 83    
Maximum Humidity 100    
Minimum Humidity 65    
Precipitation  
Precipitation 0.82 in 0.11 in 1.70 in (1990)
Month to date precipitation 8.26 2.68  
Year to date precipitation 41.44 32.54  
Snow  
Snow 0.00 in 0.00 in - ()
Month to date snowfall 0.0 0.0  
Since 1 June snowfall 0.0 0.0  
Since 1 July snowfall 0.0 0.0  
Snow Depth 0.00 in    
Sea Level Pressure  
Sea Level Pressure 30.18 in    
Wind  
Wind Speed 1 mph (West)    
Max Wind Speed 26 mph    
Max Gust Speed 43 mph    
Visibility 6 miles    
Events Fog , Rain , Thunderstorm    
T = Trace of Precipitation, MM = Missing Value Source: NWS Daily Summary

Daily Weather History Graph

Daily Weather History Graph

Search for Another Location

Airport or City:

Trip Planner

Search our weather history database for the weather conditions in past years. The results will help you decide how hot, cold, wet, or windy it might be!

Date:

Astronomy

Aug. 21, 2013 Rise Set
Actual Time 6:54 AM EDT 8:17 PM EDT
Civil Twilight 6:26 AM EDT 8:44 PM EDT
Nautical Twilight 5:54 AM EDT 9:17 PM EDT
Astronomical Twilight 5:19 AM EDT 9:52 PM EDT
Moon 8:28 PM EDT (8/21) 7:31 AM EDT (8/21)
Length of Visible Light 14h 17m
Length of Day
13h 23m
Full, 100% of the Moon is Illuminated
Aug 21
Full
Aug 28
Last Quarter
Sep 5
New
Sep 12
First Quarter
Sep 19
Full

Hourly Weather History & Observations

Time (EDT) Temp. Heat Index Dew Point Humidity Pressure Visibility Wind Dir Wind Speed Gust Speed Precip Events Conditions
12:53 AM 71.1 °F - 68.0 °F 90% 30.15 in 10.0 mi Calm Calm - N/A   Clear
1:53 AM 71.1 °F - 68.0 °F 90% 30.14 in 8.0 mi Calm Calm - N/A   Clear
2:53 AM 70.0 °F - 68.0 °F 93% 30.14 in 5.0 mi Calm Calm - N/A   Overcast
3:53 AM 69.1 °F - 68.0 °F 96% 30.13 in 7.0 mi Calm Calm - N/A   Clear
4:24 AM 68.0 °F - 66.2 °F 94% 30.17 in 2.5 mi Calm Calm - N/A   Clear
4:32 AM 68.0 °F - 66.2 °F 94% 30.17 in 5.0 mi Calm Calm - N/A   Clear
4:39 AM 68.0 °F - 66.2 °F 94% 30.17 in 2.5 mi Calm Calm - N/A   Scattered Clouds
4:45 AM 68.0 °F - 66.2 °F 94% 30.17 in 1.5 mi Calm Calm - N/A   Mostly Cloudy
4:49 AM 68.0 °F - 66.2 °F 94% 30.17 in 2.0 mi Calm Calm - N/A   Mostly Cloudy
4:53 AM 68.0 °F - 66.9 °F 96% 30.13 in 2.5 mi Calm Calm - N/A   Mostly Cloudy
5:00 AM 68.0 °F - 66.2 °F 94% 30.17 in 3.0 mi Calm Calm - N/A   Mostly Cloudy
5:46 AM 68.0 °F - 66.2 °F 94% 30.18 in 1.8 mi Calm Calm - N/A   Scattered Clouds
5:51 AM 66.2 °F - 66.2 °F 100% 30.18 in 0.8 mi Calm Calm - N/A   Scattered Clouds
5:53 AM 66.9 °F - 66.0 °F 97% 30.14 in 0.8 mi Calm Calm - N/A   Scattered Clouds
6:00 AM 66.2 °F - 66.2 °F 100% 30.18 in 1.2 mi Calm Calm - N/A   Mostly Cloudy
6:07 AM 68.0 °F - 66.2 °F 94% 30.18 in 2.5 mi Calm Calm - N/A   Mostly Cloudy
6:14 AM 68.0 °F - 66.2 °F 94% 30.18 in 7.0 mi Calm Calm - N/A   Scattered Clouds
6:31 AM 68.0 °F - 66.2 °F 94% 30.19 in 10.0 mi Calm Calm - N/A Thunderstorm Partly Cloudy
6:46 AM 66.2 °F - 66.2 °F 100% 30.21 in 2.0 mi Calm Calm - 0.01 in Rain , Thunderstorm Light Thunderstorms and Rain
6:49 AM 66.2 °F - 66.2 °F 100% 30.22 in 0.8 mi SW 4.6 mph - 0.01 in Rain , Thunderstorm Light Thunderstorms and Rain
6:53 AM 66.9 °F - 66.0 °F 97% 30.17 in 0.5 mi SE 6.9 mph - 0.14 in Fog , Rain , Thunderstorm Heavy Thunderstorms and Rain
7:03 AM 66.2 °F - 66.2 °F 100% 30.20 in 1.8 mi Calm Calm - 0.36 in Rain , Thunderstorm Light Thunderstorms and Rain
7:05 AM 66.2 °F - 66.2 °F 100% 30.20 in 3.0 mi Calm Calm - 0.36 in Rain , Thunderstorm Light Thunderstorms and Rain
7:23 AM 69.8 °F - 66.2 °F 88% 30.21 in 6.0 mi Calm Calm - 0.36 in Rain Light Rain
7:30 AM 68.0 °F - 66.2 °F 94% 30.21 in 4.0 mi Calm Calm - 0.36 in Rain , Thunderstorm Light Rain
7:51 AM 68.0 °F - 66.2 °F 94% 30.22 in 1.5 mi Calm Calm - 0.36 in Thunderstorm Mostly Cloudy
7:53 AM 68.0 °F - 66.9 °F 96% 30.18 in 0.8 mi Calm Calm - 0.36 in Thunderstorm Mostly Cloudy
8:01 AM 68.0 °F - 66.2 °F 94% 30.22 in 1.0 mi Calm Calm - N/A Thunderstorm Mostly Cloudy
8:03 AM 68.0 °F - 66.2 °F 94% 30.22 in 3.0 mi Calm Calm - N/A Thunderstorm Mostly Cloudy
8:28 AM 69.8 °F - 68.0 °F 94% 30.23 in 8.0 mi Calm Calm - N/A   Mostly Cloudy
8:44 AM 69.8 °F - 68.0 °F 94% 30.23 in 9.0 mi Calm Calm - N/A   Overcast
8:53 AM 70.0 °F - 68.0 °F 93% 30.20 in 10.0 mi Calm Calm - N/A   Overcast
9:36 AM 73.4 °F - 69.8 °F 88% 30.24 in 10.0 mi Calm Calm - N/A   Scattered Clouds
9:53 AM 73.0 °F - 69.1 °F 87% 30.20 in 10.0 mi Calm Calm - N/A   Scattered Clouds
10:32 AM 75.2 °F - 69.8 °F 83% 30.24 in 10.0 mi Variable 3.5 mph - N/A   Partly Cloudy
10:53 AM 75.9 °F - 71.1 °F 85% 30.20 in 10.0 mi Calm Calm - N/A   Mostly Cloudy
11:37 AM 77.0 °F - 71.6 °F 83% 30.23 in 10.0 mi Calm Calm - N/A   Mostly Cloudy
11:44 AM 78.8 °F - 71.6 °F 78% 30.23 in 10.0 mi Calm Calm - N/A   Scattered Clouds
11:53 AM 80.1 °F 83.6 °F 71.1 °F 74% 30.19 in 10.0 mi Calm Calm - N/A   Mostly Cloudy
12:02 PM 77.0 °F - 69.8 °F 78% 30.23 in 10.0 mi Calm Calm - N/A   Mostly Cloudy
12:17 PM 80.6 °F 83.9 °F 69.8 °F 70% 30.23 in 10.0 mi Calm Calm - N/A   Scattered Clouds
12:53 PM 82.0 °F 86.3 °F 71.1 °F 69% 30.18 in 10.0 mi WNW 3.5 mph - N/A   Mostly Cloudy
1:00 PM 80.6 °F 84.6 °F 71.6 °F 74% 30.22 in 10.0 mi Calm Calm - N/A   Mostly Cloudy
1:09 PM 80.6 °F 83.9 °F 69.8 °F 70% 30.22 in 10.0 mi Calm Calm - N/A   Scattered Clouds
1:53 PM 82.9 °F 87.0 °F 70.0 °F 65% 30.15 in 10.0 mi Calm Calm - N/A   Scattered Clouds
2:53 PM 81.0 °F 84.1 °F 69.1 °F 67% 30.13 in 10.0 mi Calm Calm - N/A   Partly Cloudy
3:53 PM 81.0 °F 84.9 °F 71.1 °F 72% 30.15 in 10.0 mi WSW 5.8 mph - N/A   Partly Cloudy
4:03 PM 80.6 °F 84.6 °F 71.6 °F 74% 30.18 in 10.0 mi Variable 3.5 mph - N/A Thunderstorm Thunderstorm
4:29 PM 64.4 °F - 60.8 °F 88% 30.19 in 2.0 mi NNW 19.6 mph 42.6 mph 0.01 in Rain , Thunderstorm Thunderstorms and Rain
4:32 PM 62.6 °F - 59.0 °F 88% 30.21 in 1.5 mi NNW 20.7 mph 42.6 mph 0.02 in Rain , Thunderstorm Thunderstorms and Rain
4:42 PM 62.6 °F - 59.0 °F 88% 30.22 in 0.8 mi NNW 16.1 mph 29.9 mph 0.12 in Rain , Thunderstorm Heavy Thunderstorms and Rain
4:51 PM 62.6 °F - 60.8 °F 94% 30.20 in 1.0 mi WSW 3.5 mph 21.9 mph 0.30 in Rain , Thunderstorm Thunderstorms and Rain
4:53 PM 62.1 °F - 61.0 °F 96% 30.17 in 1.2 mi Calm Calm - 0.31 in Rain , Thunderstorm Thunderstorms and Rain
4:59 PM 62.6 °F - 60.8 °F 94% 30.19 in 3.0 mi Variable 3.5 mph - 0.01 in Rain , Thunderstorm Light Thunderstorms and Rain
5:10 PM 62.6 °F - 62.6 °F 100% 30.18 in 0.5 mi Variable 3.5 mph - 0.01 in Fog , Rain , Thunderstorm Light Rain
5:17 PM 62.6 °F - 62.6 °F 100% 30.18 in 0.2 mi Variable 3.5 mph - 0.01 in Fog , Rain Light Rain
5:26 PM 64.4 °F - 62.6 °F 94% 30.18 in 1.8 mi Calm Calm - 0.01 in Rain Light Rain
5:33 PM 64.4 °F - 62.6 °F 94% 30.17 in 2.5 mi Calm Calm - 0.01 in   Mostly Cloudy
5:35 PM 64.4 °F - 62.6 °F 94% 30.16 in 4.0 mi Calm Calm - 0.01 in   Mostly Cloudy
5:42 PM 66.2 °F - 64.4 °F 94% 30.16 in 3.0 mi Calm Calm - 0.01 in   Mostly Cloudy
5:49 PM 66.2 °F - 64.4 °F 94% 30.16 in 5.0 mi Calm Calm - 0.01 in   Scattered Clouds
5:53 PM 66.9 °F - 64.9 °F 93% 30.12 in 10.0 mi Calm Calm - 0.01 in   Scattered Clouds
6:53 PM 69.1 °F - 64.9 °F 87% 30.12 in 10.0 mi Variable 3.5 mph - N/A   Clear
7:53 PM 68.0 °F - 64.0 °F 87% 30.14 in 10.0 mi Calm Calm - N/A   Clear
8:53 PM 66.0 °F - 63.0 °F 90% 30.14 in 10.0 mi East 3.5 mph - N/A   Mostly Cloudy
9:53 PM 66.9 °F - 64.0 °F 90% 30.14 in 10.0 mi SSE 4.6 mph - N/A   Clear
10:53 PM 66.0 °F - 64.0 °F 93% 30.14 in 10.0 mi Calm Calm - N/A   Clear
11:53 PM 64.9 °F - 64.0 °F 97% 30.14 in 10.0 mi Calm Calm - N/A   Clear